Air Resources Laboratory banner image
Air Resources Laboratory web site National Oceanic and Atmospheric Administration (NOAA)

ri roundup


Office: BOX

ASUS41 KBOX 170610
RWRBOX

REGIONAL WEATHER ROUNDUP
NATIONAL WEATHER SERVICE BOSTON/NORTON MA
200 AM EDT WED AUG 17 2022

NOTE:  "FAIR" INDICATES FEW OR NO CLOUDS BELOW 12,000 FEET WITH NO
SIGNIFICANT WEATHER AND/OR OBSTRUCTIONS TO VISIBILITY.

MAZALL-170700-
EASTERN MASSACHUSETTS

CITY           SKY/WX    TMP DP  RH WIND       PRES   REMARKS
BOSTON         NOT AVBL
BEVERLY        CLOUDY    65  60  84 N3        30.01F
LAWRENCE       NOT AVBL
BEDFORD        CLOUDY    64  58  80 CALM      30.00F
BLUE HILL      NOT AVBL
NORWOOD        CLOUDY    67  50  55 CALM      30.00F
MARSHFIELD     NOT AVBL
PLYMOUTH       NOT AVBL
TAUNTON        NOT AVBL
NEW BEDFORD    LGT RAIN  65  65 100 N3        29.98F
$$

MAZALL-170700-
CAPE COD AND THE ISLANDS

CITY           SKY/WX    TMP DP  RH WIND       PRES   REMARKS
FALMOUTH       NOT AVBL
HYANNIS        NOT AVBL
CHATHAM        LGT RAIN  67  62  84 N8        29.95F
NANTUCKET      CLOUDY    67  65  93 N13       29.93F
MARTHAS VNYRD  LGT RAIN  66  64  93 N8        29.96F
$$

MAZALL-170700-
CENTRAL AND WESTERN MASSACHUSETTS

CITY           SKY/WX    TMP DP  RH WIND       PRES   REMARKS
WORCESTER      NOT AVBL
FITCHBURG      NOT AVBL
ORANGE         NOT AVBL
SPRINGFIELD    CLOUDY    63  55  76 CALM      30.00F
WESTFIELD      CLOUDY    67  54  63 N3        30.02F
NORTH ADAMS    NOT AVBL
PITTSFIELD     MOCLDY    64  54  69 CALM      30.05F
$$

RIZALL-170700-
RHODE ISLAND

CITY           SKY/WX    TMP DP  RH WIND       PRES   REMARKS
PROVIDENCE     CLOUDY    66  61  84 NW5       30.00F
6HR MIN TEMP:  66; 6HR MAX TEMP:  70; 6HR PCP:  0.02;

NEWPORT        LGT RAIN  64  64 100 N7        29.99F
BLOCK ISLAND   LGT RAIN  64  62  93 N8        30.00S
SMITHFIELD     CLOUDY    64  61  90 N5        30.02F
WESTERLY       LGT RAIN  64  62  93 N3        30.00F
$$

CTZALL-170700-
CONNECTICUT

CITY           SKY/WX    TMP DP  RH WIND       PRES   REMARKS
BRADLEY INTL   CLOUDY    68  55  63 CALM      30.02F
6HR MIN TEMP:  68; 6HR MAX TEMP:  76;

HARTFORD       CLOUDY    71  54  54 CALM      30.01F
BRIDGEPORT     MOCLDY    70  56  61 NE7       30.01F
GROTON         NOT AVBL
NEW HAVEN      NOT AVBL
CHESTER        NOT AVBL
MERIDEN        CLOUDY    69  53  56 N3        30.02F
WILLIMANTIC    NOT AVBL
$$

MEZ002-015-021-024-NHZ003-005-008-011-012-014-VTZ005-008-170700-
NORTHERN NEW ENGLAND

CITY           SKY/WX    TMP DP  RH WIND       PRES   REMARKS
PORTLAND ME    CLOUDY    67  60  78 N8        30.03F
6HR MIN TEMP:  67; 6HR MAX TEMP:  70;

BANGOR ME      CLOUDY    66  58  75 NE8       30.06F
CONCORD NH     CLOUDY    65  58  78 N5        30.04F
MANCHESTER NH  CLOUDY    69  56  62 N5        30.01F
NASHUA NH      CLOUDY    67  57  70 W7        30.03F
PORTSMOUTH NH  CLOUDY    67  54  64 N5        30.01F
JAFFREY NH     CLOUDY    63  54  72 CALM      30.06F
KEENE NH       CLOUDY    62  58  86 CALM        N/A
BURLINGTON VT  NOT AVBL
MT. WASHINGTON FOG       46  46 100 E32         N/A  VSB 0
$$

NYZ052-076-170700-
EASTERN NEW YORK

CITY           SKY/WX    TMP DP  RH WIND       PRES   REMARKS
ALBANY         LGT RAIN  69  59  70 CALM      30.05F
6HR MIN TEMP:  68; 6HR MAX TEMP:  76; 6HR PCP: TRACE;

NEW YORK CITY  MOCLDY    73  57  57 NE14      30.00F
6HR MIN TEMP:  73; 6HR MAX TEMP:  78;

$$

ANZALL-170700-
MARINE OBSERVATIONS

STATION/POSITION TIME  TEMP    WIND        PRES    VSBY  WAVE
                       AIR SEA DIR/SP/G                  HT/PER
                 (UTC) (F)     (DEG/KT/KT) (MB)    (MI)  (FT/S)
BOSTON BUOY      NOT AVBL
BUZZARDS BAY     NOT AVBL
NANTUCKET SOUND  NOT AVBL
MASS BAY-STELLWA NOT AVBL
ISLE OF SHOALS   NOT AVBL
S OF BLOCK IS    NOT AVBL
$$

......................KEY.........................
  SKY/WX - SKY CONDITION/PRESENT WEATHER
  TMP    - TEMPERATURE IN FAHRENHEIT
  DWPT   - DEWPOINT IN FAHRENHEIT
  RH     - RELATIVE HUMIDITY IN PERCENT
  WIND   - DIRECTION AND SPEED IN MPH
  PRES   - MEAN SEA LEVEL PRESSURE IN INCHES OF HG
  WCI    - WIND CHILL INDEX
  VSB    - VISIBILITY IN MILES
  HX     - HEAT INDEX
  TC     - TEMPERATURE IN CELSIUS
  VRB    - VARIABLE WIND DIRECTION
  N/A    - NOT AVAILABLE




Office: OKX ASUS41 KOKX 170605 RWROKX Regional Weather Roundup National Weather Service New York NY 200 AM EDT WED AUG 17 2022 Note: "FAIR" indicates few or no clouds below 12,000 feet with no significant weather and/or obstructions to visibility. NYZ071-072-176-178-NJZ106-104-170700- New York City Metro Area CITY SKY/WX TMP DP RH WIND PRES REMARKS Central Park PTCLDY 73 57 57 VRB7 30.03F World Trd Ctr NOT AVBL Bronx Lehman C N/A 72 57 60 NE7 N/A LaGuardia Arpt MOCLDY 73 57 57 NE14 30.00F Queens College N/A 70 64 83 E6 N/A Kennedy Intl MOCLDY 70 61 73 E9 30.01F Breezy Point N/A 70 N/A N/A E8 N/A Brooklyn Coll N/A 70 64 83 E5 N/A Staten Island N/A 68 64 88 E3 N/A Newark/Liberty LGT RAIN 70 62 76 SE6 30.00F Teterboro PTCLDY 71 61 70 NE6 30.00S $$ NYZ177-179-078>081-170700- Long Island New York CITY SKY/WX TMP DP RH WIND PRES REMARKS Jones Beach N/A 70 N/A N/A NE12 N/A Wantagh N/A 68 61 77 NE3 N/A Hempstead NOT AVBL Matinecock Pt N/A 70 N/A N/A E12 N/A Farmingdale NOT AVBL MacArthur/ISP PTCLDY 67 58 72 NE6 30.00F Stony Brook N/A 68 57 68 E1 N/A Shirley NOT AVBL Mt Sinai Harb N/A 70 N/A N/A E6G13 N/A Westhampton NOT AVBL East Hampton NOT AVBL Southold N/A N/A N/A N/A NE6 N/A Montauk N/A 66 63 90 N9 30.00F $$ NYZ052-065-067-170700- Hudson Valley CITY SKY/WX TMP DP RH WIND PRES REMARKS White Plains NOT AVBL Larchmont Harb N/A 70 N/A N/A N7 N/A Croton On Huds N/A 66 N/A N/A NE2 N/A Somers N/A 64 55 72 N2 N/A Brewster N/A 63 55 77 N2 N/A Newburgh PTCLDY 68 54 60 VRB5 30.03F Montgomery MOCLDY 62 55 77 N5 30.03S Otisville N/A 61 54 77 CALM N/A Warwick N/A 61 55 82 SE2 N/A Suffern N/A 64 57 77 S1 N/A Poughkeepsie NOT AVBL Albany LGT RAIN 69 59 70 CALM 30.05F $$ NJZ001-105-106-008-010-013-015-019>022-104-170700- New Jersey CITY SKY/WX TMP DP RH WIND PRES REMARKS Newark/Liberty LGT RAIN 70 62 76 SE6 30.00F Teterboro PTCLDY 71 61 70 NE6 30.00S Caldwell NOT AVBL Somerville NOT AVBL Linden NOT AVBL Perth Amboy N/A 72 N/A N/A E7 N/A Sussex NOT AVBL Andover N/A 64 58 80 CALM 30.03F Trenton NOT AVBL Millville CLEAR 59 56 89 CALM 30.00S Atlantic City CLEAR 61 58 90 NW3 30.00S Wrightstown CLEAR 62 59 90 CALM 30.00F Toms River NOT AVBL Belmar MOCLDY 67 66 97 CALM 30.02S $$ PAZ047>061-062-071-170700- Eastern Pennsylvania CITY SKY/WX TMP DP RH WIND PRES REMARKS Philadelphia MOCLDY 71 60 68 CALM 30.01S Allentown MOCLDY 60 54 80 N5 30.02S Scranton MOCLDY 63 53 70 E5 30.04S $$ CTZ002-004>006-009-010-012-RIZ004-006-007-MAZ004-011-015-170700- Southern New England In CT CITY SKY/WX TMP DP RH WIND PRES REMARKS Bradley Intl CLOUDY 68 55 63 CALM 30.02F Hartford MOCLDY 71 54 54 CALM 30.01F Danbury NOT AVBL Wtrbury/Oxford NOT AVBL Norwalk Harbor N/A 70 N/A N/A N12 N/A Bridgeport PTCLDY 70 56 61 NE7 30.01F Meriden MOCLDY 69 53 56 N3 30.02F New Haven NOT AVBL Chester NOT AVBL Groton NOT AVBL Willimantic NOT AVBL In RI CITY SKY/WX TMP DP RH WIND PRES REMARKS Providence CLOUDY 66 61 84 NW5 30.00F Block Island LGT RAIN 64 62 93 N8 30.00S Westerly LGT RAIN 64 62 93 N3 30.00F In MA CITY SKY/WX TMP DP RH WIND PRES REMARKS Boston NOT AVBL Worcester NOT AVBL Westfield CLOUDY 67 54 63 N3 30.02F Provincetown NOT AVBL Nantucket CLOUDY 67 65 93 N13 29.93F $$ ANZ330-335-338-340-345-350-353-355-170700- Coastal Marine Observations STATION/POSITION TIME SKY/WX TEMP WIND PRES VSBY WAVE AIR SEA DIR/SP/G HT/PER (UTC) (F) (DEG/KT/KT) (MB) (MI) (FT/S) NY Harb Entrance 0550 73 70/ 16/ 19 1014.8 5/ 8 20 S Fire Island 0540 72 1014.6 Great South Bay 0530 71 70/ 10/ 14 N/A 23 SSW Montauk P 0540 67 10/ 17/ 21 1015.3 15 E Barnegat Li 0526 73 N/A 6/ 8 Hudson Canyon 0540 71 75 40/ 17/ 23 1013.8 Kings Point 0524 70 74 40/ 2/ 3 1016.3 Execution Rocks 0545 73 80/ 14/ 19 N/A Western LI Sound 0545 75 80/ 14/ 19 N/A Central LI Sound NOT AVBL Robbins Reef 0530 72 140/ 5/ 7 1015.7 $$ >>>>>>>>>>>>>>>>>>>>>>>>>>>> KEY <<<<<<<<<<<<<<<<<<<<<<<<<<< > < > SKY/WX - Sky Condition/Present Weather < > TMP - Temperature in Fahrenheit < > DP - Dew Point in Fahrenheit < > RH - Relative Humidity in Percent < > WIND - Direction (from) and Speed in MPH < > PRES - Mean Sea Level Pressure (inches of Hg) < > WCI - Wind Chill Index < > VSB - Visibility in Miles < > HX - Heat Index < > TC - Temperature in Celsius < > VRB - Variable Wind Direction < > < >>>>>>>>>>>>>>>>>>>>>>>>>>>> KEY <<<<<<<<<<<<<<<<<<<<<<<<<<< ASUS41 KOKX 170611 RWROKX Regional Weather Roundup National Weather Service New York NY 200 AM EDT WED AUG 17 2022 Note: "FAIR" indicates few or no clouds below 12,000 feet with no significant weather and/or obstructions to visibility. NYZ071-072-176-178-NJZ106-104-170700- New York City Metro Area CITY SKY/WX TMP DP RH WIND PRES REMARKS Central Park PTCLDY 73 57 57 VRB7 30.03F World Trd Ctr NOT AVBL Bronx Lehman C N/A 70 57 64 NE6 N/A LaGuardia Arpt MOCLDY 73 57 57 NE14 30.00F Queens College N/A 70 63 78 E7 N/A Kennedy Intl MOCLDY 70 61 73 E9 30.01F Breezy Point N/A 70 N/A N/A E8 N/A Brooklyn Coll N/A 70 64 83 E6 N/A Staten Island N/A 68 66 94 NE5 N/A Newark/Liberty LGT RAIN 70 62 76 SE6 30.00F Teterboro PTCLDY 71 61 70 NE6 30.00S $$ NYZ177-179-078>081-170700- Long Island New York CITY SKY/WX TMP DP RH WIND PRES REMARKS Jones Beach N/A 70 N/A N/A NE12 N/A Wantagh N/A 68 61 77 NE3 N/A Hempstead NOT AVBL Matinecock Pt N/A 70 N/A N/A E12 N/A Farmingdale NOT AVBL MacArthur/ISP MOCLDY 67 58 72 NE6 30.00F Stony Brook N/A 68 57 68 E2 N/A Shirley NOT AVBL Mt Sinai Harb N/A 70 N/A N/A E6G13 N/A Westhampton NOT AVBL East Hampton NOT AVBL Southold N/A N/A N/A N/A NE5 N/A Montauk N/A 66 63 90 N9 30.00F $$ NYZ052-065-067-170700- Hudson Valley CITY SKY/WX TMP DP RH WIND PRES REMARKS White Plains NOT AVBL Larchmont Harb N/A 70 N/A N/A N7 N/A Croton On Huds N/A 66 N/A N/A NE2 N/A Somers N/A 64 55 72 N1 N/A Brewster N/A 63 55 77 NW2 N/A Newburgh PTCLDY 68 54 60 VRB5 30.03F Montgomery PTCLDY 62 55 77 N5 30.03S Otisville N/A 61 54 77 CALM N/A Warwick N/A 59 55 88 SE1 N/A Suffern N/A 64 57 77 SW1 N/A Poughkeepsie NOT AVBL Albany LGT RAIN 69 59 70 CALM 30.05F $$ NJZ001-105-106-008-010-013-015-019>022-104-170700- New Jersey CITY SKY/WX TMP DP RH WIND PRES REMARKS Newark/Liberty LGT RAIN 70 62 76 SE6 30.00F Teterboro PTCLDY 71 61 70 NE6 30.00S Caldwell NOT AVBL Somerville NOT AVBL Linden NOT AVBL Perth Amboy N/A 72 N/A N/A E7 N/A Sussex NOT AVBL Andover N/A 64 58 80 CALM 30.03F Trenton NOT AVBL Millville CLEAR 59 56 89 CALM 30.00S Atlantic City CLEAR 61 58 90 NW3 30.00S Wrightstown CLEAR 62 59 90 CALM 30.00F Toms River NOT AVBL Belmar MOCLDY 67 66 97 CALM 30.02S $$ PAZ047>061-062-071-170700- Eastern Pennsylvania CITY SKY/WX TMP DP RH WIND PRES REMARKS Philadelphia MOCLDY 71 60 68 CALM 30.01S Allentown MOCLDY 60 54 80 N5 30.02S Scranton MOCLDY 63 53 70 E5 30.04S $$ CTZ002-004>006-009-010-012-RIZ004-006-007-MAZ004-011-015-170700- Southern New England In CT CITY SKY/WX TMP DP RH WIND PRES REMARKS Bradley Intl CLOUDY 68 55 63 CALM 30.02F Hartford CLOUDY 71 54 54 CALM 30.01F Danbury NOT AVBL Wtrbury/Oxford NOT AVBL Norwalk Harbor N/A 70 N/A N/A N12 N/A Bridgeport MOCLDY 70 56 61 NE7 30.01F Meriden CLOUDY 69 53 56 N3 30.02F New Haven NOT AVBL Chester NOT AVBL Groton NOT AVBL Willimantic NOT AVBL In RI CITY SKY/WX TMP DP RH WIND PRES REMARKS Providence CLOUDY 66 61 84 NW5 30.00F Block Island LGT RAIN 64 62 93 N8 30.00S Westerly LGT RAIN 64 62 93 N3 30.00F In MA CITY SKY/WX TMP DP RH WIND PRES REMARKS Boston NOT AVBL Worcester NOT AVBL Westfield CLOUDY 67 54 63 N3 30.02F Provincetown NOT AVBL Nantucket CLOUDY 67 65 93 N13 29.93F $$ ANZ330-335-338-340-345-350-353-355-170700- Coastal Marine Observations STATION/POSITION TIME SKY/WX TEMP WIND PRES VSBY WAVE AIR SEA DIR/SP/G HT/PER (UTC) (F) (DEG/KT/KT) (MB) (MI) (FT/S) NY Harb Entrance 0550 73 70/ 16/ 19 1014.8 5/ 8 20 S Fire Island 0550 1014.5 6/ 8 Great South Bay 0530 71 70/ 10/ 14 N/A 23 SSW Montauk P 0550 67 20/ 17/ 19 1015.1 15 E Barnegat Li 0526 73 N/A 6/ 8 Hudson Canyon 0550 71 75 30/ 16/ 21 1013.7 Kings Point 0524 70 74 40/ 2/ 3 1016.3 Execution Rocks 0545 73 80/ 14/ 19 N/A Western LI Sound 0545 75 80/ 14/ 19 N/A Central LI Sound NOT AVBL Robbins Reef 0530 72 140/ 5/ 7 1015.7 $$ >>>>>>>>>>>>>>>>>>>>>>>>>>>> KEY <<<<<<<<<<<<<<<<<<<<<<<<<<< > < > SKY/WX - Sky Condition/Present Weather < > TMP - Temperature in Fahrenheit < > DP - Dew Point in Fahrenheit < > RH - Relative Humidity in Percent < > WIND - Direction (from) and Speed in MPH < > PRES - Mean Sea Level Pressure (inches of Hg) < > WCI - Wind Chill Index < > VSB - Visibility in Miles < > HX - Heat Index < > TC - Temperature in Celsius < > VRB - Variable Wind Direction < > < >>>>>>>>>>>>>>>>>>>>>>>>>>>> KEY <<<<<<<<<<<<<<<<<<<<<<<<<<< ASUS41 KOKX 170614 RWROKX Regional Weather Roundup National Weather Service New York NY 200 AM EDT WED AUG 17 2022 Note: "FAIR" indicates few or no clouds below 12,000 feet with no significant weather and/or obstructions to visibility. NYZ071-072-176-178-NJZ106-104-170700- New York City Metro Area CITY SKY/WX TMP DP RH WIND PRES REMARKS Central Park PTCLDY 73 57 57 VRB7 30.03F World Trd Ctr NOT AVBL Bronx Lehman C NOT AVBL LaGuardia Arpt MOCLDY 73 57 57 NE14 30.00F Queens College NOT AVBL Kennedy Intl MOCLDY 70 61 73 E9 30.01F Breezy Point NOT AVBL Brooklyn Coll NOT AVBL Staten Island NOT AVBL Newark/Liberty LGT RAIN 70 62 76 SE6 30.00F Teterboro PTCLDY 71 61 70 NE6 30.00S $$ NYZ177-179-078>081-170700- Long Island New York CITY SKY/WX TMP DP RH WIND PRES REMARKS Jones Beach NOT AVBL Wantagh NOT AVBL Hempstead NOT AVBL Matinecock Pt NOT AVBL Farmingdale NOT AVBL MacArthur/ISP MOCLDY 67 58 72 NE6 30.00F Stony Brook NOT AVBL Shirley NOT AVBL Mt Sinai Harb NOT AVBL Westhampton NOT AVBL East Hampton NOT AVBL Southold NOT AVBL Montauk N/A 66 63 90 N9 30.00F $$ NYZ052-065-067-170700- Hudson Valley CITY SKY/WX TMP DP RH WIND PRES REMARKS White Plains NOT AVBL Larchmont Harb NOT AVBL Croton On Huds NOT AVBL Somers NOT AVBL Brewster NOT AVBL Newburgh PTCLDY 68 54 60 VRB5 30.03F Montgomery PTCLDY 62 55 77 N5 30.03S Otisville NOT AVBL Warwick NOT AVBL Suffern NOT AVBL Poughkeepsie NOT AVBL Albany LGT RAIN 69 59 70 CALM 30.05F $$ NJZ001-105-106-008-010-013-015-019>022-104-170700- New Jersey CITY SKY/WX TMP DP RH WIND PRES REMARKS Newark/Liberty LGT RAIN 70 62 76 SE6 30.00F Teterboro PTCLDY 71 61 70 NE6 30.00S Caldwell NOT AVBL Somerville NOT AVBL Linden NOT AVBL Perth Amboy NOT AVBL Sussex NOT AVBL Andover N/A 64 58 80 CALM 30.03F Trenton NOT AVBL Millville CLEAR 59 56 89 CALM 30.00S Atlantic City CLEAR 61 58 90 NW3 30.00S Wrightstown CLEAR 62 59 90 CALM 30.00F Toms River NOT AVBL Belmar MOCLDY 67 66 97 CALM 30.02S $$ PAZ047>061-062-071-170700- Eastern Pennsylvania CITY SKY/WX TMP DP RH WIND PRES REMARKS Philadelphia MOCLDY 71 60 68 CALM 30.01S Allentown MOCLDY 60 54 80 N5 30.02S Scranton MOCLDY 63 53 70 E5 30.04S $$ CTZ002-004>006-009-010-012-RIZ004-006-007-MAZ004-011-015-170700- Southern New England In CT CITY SKY/WX TMP DP RH WIND PRES REMARKS Bradley Intl CLOUDY 68 55 63 CALM 30.02F Hartford CLOUDY 71 54 54 CALM 30.01F Danbury NOT AVBL Wtrbury/Oxford NOT AVBL Norwalk Harbor NOT AVBL Bridgeport MOCLDY 70 56 61 NE7 30.01F Meriden CLOUDY 69 53 56 N3 30.02F New Haven NOT AVBL Chester NOT AVBL Groton NOT AVBL Willimantic NOT AVBL In RI CITY SKY/WX TMP DP RH WIND PRES REMARKS Providence CLOUDY 66 61 84 NW5 30.00F Block Island LGT RAIN 64 62 93 N8 30.00S Westerly LGT RAIN 64 62 93 N3 30.00F In MA CITY SKY/WX TMP DP RH WIND PRES REMARKS Boston NOT AVBL Worcester NOT AVBL Westfield CLOUDY 67 54 63 N3 30.02F Provincetown NOT AVBL Nantucket CLOUDY 67 65 93 N13 29.93F $$ ANZ330-335-338-340-345-350-353-355-170700- Coastal Marine Observations STATION/POSITION TIME SKY/WX TEMP WIND PRES VSBY WAVE AIR SEA DIR/SP/G HT/PER (UTC) (F) (DEG/KT/KT) (MB) (MI) (FT/S) NY Harb Entrance 0550 73 70/ 16/ 19 1014.8 5/ 8 20 S Fire Island 0550 1014.5 6/ 8 Great South Bay 0530 71 70/ 10/ 14 N/A 23 SSW Montauk P 0550 67 20/ 17/ 19 1015.1 15 E Barnegat Li 0526 73 N/A 6/ 8 Hudson Canyon 0550 71 75 30/ 16/ 21 1013.7 Kings Point 0524 70 74 40/ 2/ 3 1016.3 Execution Rocks 0545 73 80/ 14/ 19 N/A Western LI Sound 0545 75 80/ 14/ 19 N/A Central LI Sound NOT AVBL Robbins Reef 0530 72 140/ 5/ 7 1015.7 $$ >>>>>>>>>>>>>>>>>>>>>>>>>>>> KEY <<<<<<<<<<<<<<<<<<<<<<<<<<< > < > SKY/WX - Sky Condition/Present Weather < > TMP - Temperature in Fahrenheit < > DP - Dew Point in Fahrenheit < > RH - Relative Humidity in Percent < > WIND - Direction (from) and Speed in MPH < > PRES - Mean Sea Level Pressure (inches of Hg) < > WCI - Wind Chill Index < > VSB - Visibility in Miles < > HX - Heat Index < > TC - Temperature in Celsius < > VRB - Variable Wind Direction < > < >>>>>>>>>>>>>>>>>>>>>>>>>>>> KEY <<<<<<<<<<<<<<<<<<<<<<<<<<<